Location: Lipsett
(52.7836°N, 104.6863°W)
Time: 15:31:14
(UTC+00:00)

Envisat - Visible Passes

Search period start: 16 August 2022 00:00
Search period end: 26 August 2022 00:00
Orbit: 763 x 765 km, 98.2° (Epoch: 15 August)

Date Brightness Start Highest point End Pass type
(mag) Time Alt. Az. Time Alt. Az. Time Alt. Az.
16 Aug 5.2 10:31:00 10° NE 10:35:09 24° E 10:39:16 10° SE visible
17 Aug 5.8 09:55:30 10° ENE 09:57:41 13° E 09:59:52 10° ESE visible
18 Aug 4.5 10:55:45 10° NNE 11:00:30 38° E 11:05:13 10° SSE visible
19 Aug 5.5 10:19:28 10° NE 10:23:12 20° E 10:26:54 10° SE visible
21 Aug 4.9 10:44:05 10° NNE 10:48:36 31° E 10:53:05 10° SSE visible
22 Aug 5.6 10:08:02 10° NE 10:11:13 16° E 10:14:23 10° SE visible
23 Aug 4.0 11:08:57 10° NNE 11:13:54 49° E 11:18:49 10° S visible
24 Aug 5.2 10:32:26 10° NE 10:36:40 26° E 10:40:52 10° SSE visible
25 Aug 5.8 09:56:48 10° NE 09:59:13 13° E 10:01:38 10° ESE visible
